GEFSNGP_500_meanwind_162.txt.gz
Wind_Speed
16 15 15 17 17 16 18 19 21 22 24 23 22 23 22 22 21 21 21 21 20 20 21 22 21 21 21 21 22 22 21 21 22 22 22 21 20 20 20 20 20 19 18 18
16 16 16 17 18 18 19 20 21 22 23 22 23 23 23 22 21 19 19 20 19 20 20 20 20 20 20 20 21 20 20 21 22 22 21 20 19 19 18 18 18 17 17 17
16 16 17 18 18 18 19 19 20 22 23 24 24 22 22 21 20 20 18 18 18 18 18 18 19 19 20 19 19 19 20 20 21 20 19 17 17 18 17 17 17 17 16 17
17 17 19 17 16 18 18 19 20 21 22 23 23 22 21 20 19 18 17 17 17 17 17 18 18 18 17 17 18 19 19 20 20 18 17 16 16 15 15 16 16 16 16 16
18 19 19 18 17 18 19 20 21 21 20 21 21 21 20 18 18 17 16 16 16 17 16 17 17 17 17 17 18 17 18 18 18 17 16 15 15 15 14 14 14 14 14 14
19 20 22 18 19 18 19 20 20 19 19 19 19 19 18 17 16 15 15 15 16 16 15 15 14 15 16 16 16 16 16 17 16 15 15 14 14 14 13 13 13 13 14 14
20 21 21 18 18 19 20 20 19 18 18 18 17 17 17 16 15 14 14 14 13 13 13 13 13 13 14 14 13 14 14 15 15 14 14 14 13 12 12 12 12 13 13 13
20 20 18 17 17 19 19 19 19 18 17 16 16 15 14 14 14 13 12 12 12 12 12 12 12 12 11 11 11 12 13 14 14 13 13 12 11 11 12 12 12 12 13 13
20 19 17 16 18 19 19 18 17 16 16 15 15 14 13 12 12 12 11 10 11 11 11 11 10 10 10 10 11 12 12 13 13 12 12 12 12 12 12 12 12 13 13 13
21 19 19 18 18 18 17 17 16 15 14 13 13 12 11 11 11 11 10 10 10 9 9 9 8 8 9 9 10 11 12 12 12 12 12 12 12 13 13 13 13 13 14 14
21 20 18 18 18 17 15 15 15 13 12 12 11 10 10 9 9 9 9 8 8 7 7 7 7 7 8 8 9 10 10 11 12 12 12 12 13 13 13 13 14 14 14 14
21 19 19 18 17 16 13 12 12 11 11 9 8 8 8 8 8 7 7 7 7 7 6 5 6 7 7 8 8 8 10 11 12 12 12 13 13 13 14 14 14 15 15 15
20 18 17 17 15 14 13 12 10 9 8 7 6 7 7 7 7 6 7 6 6 5 5 4 5 6 7 7 7 8 10 11 12 13 14 14 14 14 14 15 15 15 15 15
18 17 15 14 13 14 12 10 9 8 7 6 6 6 6 6 5 6 6 6 5 5 4 4 4 5 6 7 8 9 10 11 12 13 14 14 14 14 14 15 16 16 16 16
18 16 14 12 12 12 11 10 8 7 6 6 5 5 5 5 6 6 6 5 4 3 3 3 4 5 7 7 8 9 10 11 12 13 13 14 14 14 15 15 16 16 16 16
17 15 13 11 11 11 11 10 8 7 6 5 5 5 5 4 5 4 4 3 2 2 3 3 4 5 6 7 8 9 10 11 12 12 13 14 14 15 16 17 17 17 17 18
17 16 13 12 12 12 10 8 7 7 6 5 4 4 3 3 3 2 2 2 2 2 3 3 4 5 6 8 9 9 10 11 11 12 13 14 15 16 17 18 18 18 18 19
18 16 14 13 13 11 9 8 7 6 5 5 4 3 2 2 2 1 1 1 2 2 2 3 5 6 7 8 9 10 10 11 12 12 13 15 15 16 17 18 19 19 19 19
17 15 14 13 12 11 9 8 7 6 5 4 4 3 2 2 1 1 1 1 1 2 3 4 5 7 8 8 9 10 11 12 12 13 14 15 16 17 18 19 19 19 20 20
16 15 15 14 12 10 9 8 7 6 5 4 4 3 3 2 1 0 1 1 1 2 3 4 6 7 8 9 9 10 12 12 13 14 15 16 17 19 19 19 20 21 21 21
16 16 15 13 11 10 9 8 7 6 5 4 4 4 3 2 1 1 1 1 2 3 3 5 6 8 9 9 10 11 12 13 14 15 16 17 18 19 20 21 21 22 22 23
16 15 14 13 11 10 10 9 8 6 5 5 5 4 3 2 2 1 1 1 2 3 4 6 7 8 10 10 11 12 13 14 15 16 17 18 19 20 21 21 22 23 24 24
17 15 13 12 12 11 10 9 8 6 6 5 5 4 3 2 2 1 0 2 3 4 5 7 8 9 10 11 12 13 14 15 16 17 17 19 20 21 22 23 23 24 25 25
16 14 14 13 12 11 10 9 8 7 6 6 5 4 3 3 1 0 1 2 4 5 6 7 9 10 11 12 13 14 15 16 17 18 19 20 21 22 24 24 25 26 27 27
15 15 14 13 12 11 10 9 8 7 6 6 5 5 4 2 1 0 1 2 4 5 6 8 9 10 11 13 14 15 16 17 18 19 20 21 22 23 25 25 27 28 29 29
17 16 14 13 12 11 10 9 8 7 6 6 5 5 4 2 1 1 2 3 4 5 6 8 9 11 13 14 15 16 17 18 19 20 22 23 23 24 26 27 28 29 30 31
17 16 15 14 13 12 11 10 9 7 6 6 5 4 4 2 1 2 3 4 5 6 8 9 10 12 13 15 16 17 18 19 20 22 23 24 25 26 27 29 30 30 31 32

GEFSNGP_500_meanwind_168.txt.gz
Wind_Speed
15 15 16 17 17 17 18 18 17 17 18 18 18 18 18 19 20 19 18 16 16 16 16 17 17 19 20 19 20 21 20 19 19 19 19 19 19 19 19 18 18 18 18 17
16 15 16 17 17 18 18 17 17 17 18 18 18 18 19 19 19 18 16 16 16 16 16 16 17 18 18 19 20 20 19 18 18 18 17 17 17 17 16 15 16 16 16 16
18 18 18 17 16 17 17 16 17 18 18 18 17 18 18 19 20 18 16 16 16 16 15 15 16 17 17 18 19 18 17 17 16 16 15 15 15 15 14 14 15 15 15 15
20 20 21 17 16 17 17 17 17 18 18 18 17 18 18 18 18 17 15 15 15 14 14 14 15 16 17 17 16 16 15 16 16 15 14 14 14 15 14 14 15 15 16 15
22 22 21 17 17 17 18 17 17 17 17 18 18 18 17 17 16 16 15 13 13 13 13 15 15 15 15 14 14 14 14 14 14 13 13 14 14 14 14 14 14 15 15 15
22 22 22 19 18 18 17 16 15 16 16 17 17 17 16 15 14 13 12 11 11 12 13 13 13 13 13 13 13 14 13 14 13 13 13 13 14 14 13 14 14 15 15 15
23 23 22 20 19 18 18 16 16 16 16 17 17 16 14 13 13 12 12 11 11 12 12 11 11 12 12 12 12 13 12 12 12 12 12 13 13 13 13 13 14 14 14 15
23 23 21 19 18 17 16 15 15 16 15 15 15 14 13 12 12 12 12 11 11 12 11 10 10 11 11 11 11 11 10 10 11 11 12 12 12 13 13 13 13 13 14 15
23 22 21 19 18 17 16 16 16 16 15 15 14 13 12 12 12 11 10 10 10 11 10 9 9 10 10 10 10 9 9 10 10 11 11 12 12 13 13 13 13 13 14 15
22 21 19 17 17 16 16 17 16 15 14 13 12 11 10 9 9 9 8 7 8 9 8 8 8 8 8 9 9 9 9 9 9 10 11 11 12 13 13 13 14 14 15 15
22 19 18 17 17 17 17 15 14 14 12 11 10 9 8 7 7 6 6 7 7 7 7 7 7 7 8 8 8 8 8 8 8 10 11 11 12 13 14 14 15 15 15 16
19 17 18 17 17 17 17 15 13 13 11 10 8 6 6 7 7 6 6 6 7 7 6 6 6 7 7 7 7 7 7 8 8 9 10 11 12 13 14 15 15 16 16 16
18 17 17 16 16 16 16 15 13 12 11 9 7 7 6 6 6 5 5 5 5 5 5 5 5 6 6 7 6 6 7 7 8 9 10 11 12 13 15 16 16 16 17 18
17 17 16 15 15 14 14 14 13 11 9 8 7 6 5 4 4 4 4 4 4 4 4 4 4 5 6 6 5 5 6 7 8 9 10 12 13 14 15 16 17 17 18 19
15 15 15 14 14 14 13 12 12 11 9 7 6 5 4 3 3 3 3 3 3 3 3 3 4 5 5 5 5 6 6 7 9 10 11 12 13 14 15 16 17 18 19 19
13 13 13 12 13 13 13 12 11 10 8 7 7 5 4 3 3 2 2 2 2 2 2 2 3 4 4 4 5 6 7 8 9 10 11 12 14 15 16 17 17 19 19 20
13 11 11 10 11 12 12 13 11 8 8 8 7 6 5 4 2 2 2 1 0 1 1 2 3 4 4 5 5 6 8 8 9 10 11 13 14 15 16 17 18 19 20 21
12 11 10 10 10 12 13 12 11 8 9 8 8 7 5 3 3 2 2 1 1 1 2 3 4 4 5 5 5 7 8 9 9 10 12 13 15 16 17 18 19 20 21 21
11 10 10 10 11 12 12 12 11 10 10 9 8 6 5 4 3 3 2 2 2 1 1 3 4 5 5 5 6 7 8 9 10 11 12 14 16 17 18 19 20 21 22 22
11 11 11 12 11 11 11 11 11 11 10 9 8 7 6 5 4 4 4 3 2 1 2 3 4 5 5 6 7 8 9 10 11 12 14 16 17 18 20 21 22 23 24 24
12 12 12 12 11 11 11 12 12 11 11 10 9 8 6 5 5 5 4 3 2 1 2 3 4 5 5 7 8 9 10 11 12 13 15 17 18 19 21 22 23 24 25 26
13 12 12 12 12 12 12 13 12 12 12 11 10 9 7 6 6 5 4 3 2 2 2 2 4 5 6 7 8 9 11 12 13 15 16 17 19 20 22 24 25 26 27 27
14 13 14 14 13 13 14 13 13 13 12 11 10 9 8 7 6 5 5 4 2 2 2 3 4 5 6 7 9 11 12 14 14 15 17 19 20 22 23 25 26 27 28 29
15 15 15 15 14 14 14 14 13 12 12 11 10 10 9 7 6 6 5 3 2 1 2 3 4 5 6 8 10 11 13 15 16 17 18 20 21 23 24 25 27 28 29 30
17 16 16 16 16 15 15 14 13 12 12 11 10 10 9 8 6 5 4 3 2 1 2 4 5 6 7 9 10 12 14 15 17 18 20 21 22 23 25 27 28 29 30 31
18 17 17 17 16 15 15 14 13 12 11 11 10 10 9 8 7 5 4 3 1 1 2 4 5 6 8 9 11 13 15 16 18 19 20 22 23 25 26 28 29 30 32 33
19 18 18 17 16 16 15 14 13 12 11 11 10 10 9 8 6 5 3 2 0 1 3 5 6 7 8 10 12 14 15 17 19 20 21 23 24 26 28 29 30 32 33 34

GEFSNGP_500_meanwind_174.txt.gz
Wind_Speed
19 19 20 20 20 20 22 23 24 22 21 21 20 20 19 19 18 18 18 17 17 17 16 16 16 17 17 18 19 19 19 19 20 20 20 20 20 20 20 19 19 18 18 18
20 20 21 21 21 22 23 24 24 23 22 21 21 20 19 19 19 19 19 18 18 18 17 17 16 16 17 17 19 19 18 18 18 19 19 18 18 18 18 17 17 17 17 18
22 21 22 22 22 23 23 23 23 22 22 21 21 20 18 19 19 19 19 19 18 17 17 17 16 16 17 17 18 18 18 17 17 18 17 17 18 17 16 16 17 17 17 18
23 23 23 22 22 23 23 22 23 23 22 21 21 20 20 19 18 18 19 19 18 17 16 15 15 15 16 16 16 16 17 17 17 17 16 16 16 16 15 16 16 16 17 18
25 25 24 23 23 23 24 23 23 22 22 21 20 20 19 18 18 18 17 16 15 15 15 14 14 14 15 15 15 15 16 15 15 15 15 14 15 15 15 16 16 16 17 17
25 26 25 25 24 23 24 23 23 23 22 22 21 20 19 19 19 18 17 15 14 14 13 13 13 13 13 14 14 15 15 14 14 14 14 14 14 14 15 16 16 16 16 17
26 26 25 25 25 23 23 23 22 22 21 21 20 20 20 19 18 17 16 14 13 13 12 12 12 12 12 12 13 13 13 13 13 13 13 14 13 14 15 15 16 16 17 18
27 26 25 24 24 23 23 22 20 19 19 19 19 20 20 18 17 16 15 12 11 11 11 11 11 11 11 11 11 12 12 12 12 13 13 13 13 13 14 15 16 16 18 18
27 26 23 23 23 22 22 22 20 19 18 18 18 18 19 18 16 14 12 10 10 10 10 9 9 9 9 10 10 11 11 11 12 12 12 12 12 13 14 16 16 17 18 18
25 23 22 22 22 22 22 21 21 20 18 17 17 16 16 15 13 11 9 9 9 9 8 8 7 8 8 9 9 10 10 11 11 11 11 12 13 14 14 15 17 18 18 18
24 23 23 22 22 22 22 21 20 19 18 16 16 14 13 12 12 11 9 8 8 7 7 7 6 7 8 8 8 8 9 10 10 10 11 12 13 13 14 16 18 18 18 19
23 22 22 21 20 19 19 18 18 17 15 15 14 12 11 10 10 10 9 7 7 6 6 6 6 7 7 7 7 8 9 9 9 10 11 12 13 14 15 16 18 19 20 20
22 21 20 19 19 18 18 17 16 14 13 12 11 10 9 8 9 9 8 7 5 5 5 5 5 6 6 6 6 7 8 9 9 10 11 12 14 15 16 17 19 20 21 21
20 20 19 18 18 17 16 15 13 12 11 10 9 8 8 8 8 8 7 6 5 5 4 4 5 5 5 5 6 7 8 9 9 10 11 13 14 16 16 17 19 20 21 22
19 18 17 17 16 15 14 12 11 11 11 10 9 9 9 8 7 6 5 5 4 4 4 3 3 3 3 4 5 7 8 8 9 10 12 14 15 16 17 18 19 20 22 23
17 16 15 14 13 12 11 10 10 10 11 10 9 9 9 8 7 5 5 4 3 2 2 2 2 2 3 4 5 6 7 9 10 11 12 14 16 16 18 19 20 21 22 23
16 14 13 12 11 10 9 9 9 9 10 10 9 9 8 7 7 6 5 4 3 1 0 1 1 2 3 4 5 6 8 9 10 11 13 14 16 17 18 20 21 22 23 24
15 13 12 11 10 9 8 8 8 9 9 9 9 8 8 7 7 7 6 4 3 1 0 1 2 3 3 4 5 6 8 9 11 13 14 15 16 18 19 21 22 24 24 26
15 14 13 11 10 9 8 8 9 9 10 10 9 9 9 8 8 7 6 4 3 2 1 1 2 3 4 5 6 7 8 10 12 13 14 16 17 19 20 21 23 24 26 27
15 15 13 12 10 10 10 10 10 10 11 10 10 10 9 9 8 7 6 5 4 3 2 2 2 3 4 5 6 7 9 11 12 14 15 16 18 19 21 23 24 26 27 28
15 15 13 12 12 12 11 11 11 11 11 11 11 11 10 10 8 7 6 5 4 3 2 1 2 3 4 5 6 7 9 11 12 14 16 17 19 20 22 24 25 27 28 30
16 15 14 13 13 12 12 12 12 12 12 12 12 11 11 10 9 8 7 6 5 4 3 2 2 3 4 6 7 8 10 11 13 15 16 18 20 21 23 24 26 28 30 31
16 16 15 14 14 14 13 13 13 13 13 13 13 12 11 11 10 9 8 7 6 4 3 2 2 3 4 6 7 8 10 11 13 15 17 18 20 22 23 25 27 29 31 32
17 16 16 16 15 15 14 14 13 13 13 13 14 13 12 11 10 10 9 7 6 5 3 1 2 3 4 5 7 9 10 12 14 16 17 19 21 22 25 27 28 30 31 32
17 17 17 17 17 16 15 14 14 14 14 14 14 14 13 12 11 10 9 7 6 4 2 1 2 3 4 5 7 9 11 13 14 16 18 19 21 23 26 28 29 31 32 33
18 17 18 18 17 17 16 16 15 15 15 15 15 15 14 12 12 11 9 7 6 4 2 0 2 3 5 6 8 10 12 14 15 17 19 21 23 25 27 28 30 31 33 34
19 19 19 18 18 17 17 17 16 16 16 16 15 14 14 13 12 10 9 7 6 4 2 1 2 4 5 7 9 11 12 14 16 18 20 22 24 25 27 29 30 32 33 35

GEFSNGP_500_meanwind_180.txt.gz
Wind_Speed
18 19 20 20 20 20 21 22 22 22 23 24 24 23 23 23 22 21 19 19 18 18 18 18 18 17 16 15 15 16 16 16 17 17 17 17 18 18 18 18 18 19 18 17
19 20 21 21 21 21 21 21 22 23 23 24 24 23 23 23 22 20 20 20 19 19 18 17 17 16 15 15 15 16 15 16 16 16 16 17 17 17 17 17 17 17 17 17
20 20 21 22 21 21 22 22 22 23 23 23 23 22 22 22 21 20 20 20 20 19 18 17 16 16 15 15 15 15 14 15 15 16 16 16 16 16 17 17 16 16 16 17
21 21 22 22 23 23 23 23 23 23 23 22 22 22 21 21 19 20 20 20 19 19 18 17 16 15 15 14 14 13 13 14 15 15 15 15 15 15 15 16 16 16 17 18
23 23 24 24 24 25 25 24 24 23 22 21 20 20 20 20 20 20 20 19 19 19 18 17 15 14 14 13 13 12 12 13 14 14 14 14 14 14 14 15 16 16 17 17
24 24 25 25 25 25 25 25 24 23 22 21 20 20 20 20 20 19 19 18 18 18 16 14 13 13 13 11 11 11 12 12 13 13 13 13 13 14 14 16 17 17 17 17
24 25 25 25 25 25 24 24 24 23 22 22 21 21 20 19 19 18 17 16 16 15 13 13 11 11 11 10 10 10 11 11 12 12 12 12 13 13 14 16 16 16 17 17
26 25 26 26 26 26 25 25 24 22 22 21 20 20 18 18 17 16 15 13 13 13 12 12 11 10 9 8 8 9 10 10 11 12 12 12 13 13 14 15 15 16 17 17
26 25 26 26 26 26 25 24 23 22 21 20 19 17 16 15 14 13 12 11 11 11 11 11 10 8 7 7 8 8 9 10 11 11 11 11 12 13 13 14 15 16 17 17
27 25 25 25 25 24 23 22 21 20 19 18 17 16 15 14 13 12 11 10 10 10 10 8 7 6 5 5 6 6 7 9 10 10 11 11 12 12 13 14 15 16 17 17
27 25 24 23 23 22 21 20 19 17 17 16 15 14 13 12 12 10 9 9 8 8 7 6 5 4 4 4 5 6 6 8 9 10 11 11 11 12 13 14 15 17 18 18
25 25 24 23 21 20 19 18 16 15 15 14 13 12 11 10 9 9 8 7 7 6 5 4 4 3 3 3 4 5 6 7 8 9 11 11 11 12 13 15 16 18 19 19
24 24 23 21 20 18 17 16 15 15 15 14 13 12 10 9 8 7 6 6 5 5 4 3 3 3 3 2 3 5 6 7 8 9 10 11 11 12 14 15 17 19 20 20
23 23 21 20 19 18 16 15 14 14 14 13 11 10 9 8 7 6 5 5 5 4 4 3 3 3 2 2 3 4 5 7 8 9 10 11 12 13 15 16 17 19 20 21
22 22 20 19 18 16 15 14 13 12 11 10 9 9 8 6 6 5 5 5 4 4 3 3 3 2 1 2 3 4 5 6 8 9 10 11 13 14 15 17 18 20 21 22
21 20 19 18 16 15 14 13 12 10 9 8 9 8 8 6 6 6 5 5 4 4 4 3 3 2 1 1 2 3 5 6 8 9 10 12 13 15 16 18 19 20 22 23
21 19 18 17 15 14 12 12 11 10 9 8 8 8 7 7 7 7 6 6 5 5 4 4 3 2 1 1 2 3 5 6 8 10 11 13 14 15 17 18 20 21 23 25
20 19 18 16 15 14 12 11 11 10 10 9 8 7 7 7 7 8 7 7 6 5 4 4 4 3 1 1 2 3 5 6 8 10 11 13 14 16 17 19 20 22 24 26
18 17 16 15 14 14 13 12 10 9 9 9 8 8 8 8 8 8 8 7 6 6 5 5 4 3 1 1 2 3 5 6 8 10 12 13 15 16 18 19 21 22 25 26
17 16 15 14 14 13 12 11 10 10 9 9 8 9 9 9 9 9 9 8 6 6 5 5 4 3 1 2 3 4 5 6 8 9 11 13 15 17 18 20 22 24 26 27
17 16 15 14 14 13 12 11 11 10 10 9 10 10 10 10 10 10 9 8 7 6 6 5 4 2 2 1 3 4 6 7 8 10 11 13 15 17 19 21 23 24 26 28
17 17 16 15 15 13 12 12 11 11 11 10 10 11 11 11 11 11 10 8 7 7 6 6 4 3 1 1 3 5 6 7 8 10 12 14 16 17 19 22 24 25 27 28
17 17 16 16 15 14 13 12 12 12 11 11 11 12 12 12 11 11 10 8 7 7 7 6 5 3 1 1 3 5 6 7 9 11 12 14 16 18 20 22 24 26 27 28
17 16 16 16 15 14 14 13 13 12 12 12 12 12 12 12 12 11 10 9 8 8 7 5 4 3 2 1 3 5 6 8 10 11 13 15 16 19 21 23 25 26 27 29
18 17 17 16 16 15 14 14 14 14 14 14 13 13 13 12 11 11 10 9 9 8 7 5 4 3 2 1 3 5 7 8 10 12 13 15 17 19 22 23 25 27 28 29
18 18 18 17 16 16 16 16 16 15 15 15 15 15 14 13 12 11 10 10 9 8 7 5 4 3 2 2 3 5 7 9 10 12 14 16 18 20 22 24 26 27 28 29
20 19 19 18 17 17 17 18 17 17 17 17 16 15 14 14 13 12 11 10 9 8 7 5 4 3 2 2 4 6 7 9 11 13 15 17 19 21 23 25 26 28 29 30